Location: Newark
(52.3500°N, 175.9667°E)
Time: 05:26:10
(UTC+00:00)

S-56A Canister/Altair - Pass Details

Date: 24 April 2021
Orbit: 631 x 2501 km, 38.9° (Epoch: 12 May)

Event Time Altitude Azimuth Distance (km) Brightness Sun altitude
Rises 11:34:24 0° 241° (WSW) 4,774 11.4 -24.1°
Reaches altitude 10° 11:38:35 10° 231° (SW) 3,441 10.6 -24.2°
Enters shadow 11:38:35 10° 231° (SW) 3,440 10.6 -24.2°
Maximum altitude 11:44:59 25° 180° (S) 1,983 - -24.3°
Drops below altitude 10° 11:49:48 10° 125° (SE) 2,512 - -24.4°
Sets 11:52:20 0° 112° (ESE) 3,267 - -24.4°
